Miscellaneous Local Product
Issued by NWS Hastings, NE

Home | Current Version | Previous Version | Graphics & Text | Print | Product List | Glossary On
Versions: 1 2 3 4 5 6 7 8 9 10 11 12 13 14 15 16 17 18 19 20 21 22 23 24 25 26 27 28 29 30 31 32 33 34 35 36 37 38 39 40 41 42 43 44 45 46 47 48 49 50
000
AXUS43 KGID 041602
MISGRI

GID CWA HOURLY WEATHER ROUNDUP
NATIONAL WEATHER SERVICE HASTINGS NE
1100 AM CDT MON MAY 04 2015

NOTE: "FAIR" INDICATES FEW OR NO CLOUDS BELOW 12,000 FEET WITH NO
SIGNIFICANT WEATHER AND/OR OBSTRUCTIONS TO VISIBILITY.

...SOUTH CENTRAL NEBRASKA...

CITY           SKY/WX    TMP DP  RH WIND       PRES   REMARKS
GRAND ISLAND   LGT RAIN  57  40  52 E8        30.11R
HASTINGS       CLOUDY    56  47  71 NE16      30.08S THUNDER
KEARNEY        CLOUDY    57  34  41 NE12G26   30.10S
ORD            CLOUDY    60  28  29 NE15      30.12R
YORK           CLOUDY    57  45  62 NE10      30.08R
AURORA         LGT RAIN  56  44  63 E10       30.08R
LEXINGTON      CLOUDY    58  35  41 NE16G25   30.11R
HOLDREGE       DRIZZLE   55  44  65 NE14      30.08S
HEBRON         CLOUDY    61  55  80 NE12G17   30.01F

...NEBRASKA PANHANDLE...

CITY           SKY/WX    TMP DP  RH WIND       PRES   REMARKS
CHADRON        CLOUDY    49  42  77 NE7       30.19R
ALLIANCE       CLOUDY    51  32  48 E9        30.17R
SCOTTSBLUFF    CLOUDY    51  41  68 SE8       30.16S
SIDNEY         CLOUDY    54  36  50 E9        30.17R

...WESTERN AND NORTH CENTRAL NEBRASKA...

CITY           SKY/WX    TMP DP  RH WIND       PRES   REMARKS
VALENTINE      CLOUDY    60  23  24 E21       30.18R
AINSWORTH      CLOUDY    58  25  27 E14G25    30.17S
ONEILL         CLOUDY    60  31  33 NE16      30.16S
BROKEN BOW     CLOUDY    60  30  32 NE14      30.13S
IMPERIAL       CLOUDY    55  36  48 NE10      30.12F
NORTH PLATTE   CLOUDY    57  32  38 E16       30.13F
MCCOOK         CLOUDY    59  42  53 NE14G23   30.09R

...EASTERN NEBRASKA...

CITY           SKY/WX    TMP DP  RH WIND       PRES   REMARKS
NORFOLK        CLOUDY    64  39  39 NE12      30.12S
SO SIOUX CITY  MOSUNNY   67  37  33 E18G26    30.12S
TEKAMAH        CLOUDY    65  43  44 NE13      30.12R
COLUMBUS       CLOUDY    59  41  51 NE23G29   30.06F
ALBION         PTSUNNY   60  32  34 NE15G23   30.10F
OMAHA EPPLEY   CLOUDY    62  51  67 N9        30.08S
OFFUTT AFB     CLOUDY    62  52  69 N10       30.06F
MILLARD        LGT RAIN  61  50  68 N5        30.08F
LINCOLN        CLOUDY    62  53  72 E20G25    30.05S
NEBRASKA CITY  TSTM      60  58  94 NE9       30.07R
BEATRICE       CLOUDY    62  56  83 E12       30.01S
FALLS CITY     PTSUNNY   70  59  68 CALM      30.05R

...NORTHERN KANSAS...

CITY           SKY/WX    TMP DP  RH WIND       PRES   REMARKS
GOODLAND       CLOUDY    57  45  64 NE13      30.09S
HILL CITY      CLOUDY    60  50  69 E9        30.08R
NORTON         CLOUDY    57  39  51 NE14      30.07R
PHILLIPSBURG   LGT RAIN  63  52  67 E5        30.08R
SMITH CENTER   DRIZZLE   61  54  77 E10       30.06R
HAYS           CLOUDY    63  48  59 N7        30.03F
RUSSELL        LGT RAIN  67  52  58 N10       29.97F
CONCORDIA      CLOUDY    67  57  70 SE9       30.01S
SALINA         SUNNY     77  58  51 SW12      30.01R
TOPEKA         PTSUNNY   73  60  63 VRB5      30.04R



USA.gov is the U.S. government's official web portal to all federal, state and local government web resources and services.